Regional Weather Roundup
Issued by NWS

Home | Current Version | Previous Version | Text Only | Print | Product List | Glossary Off
Versions: 1 2 3 4 5 6 7 8 9 10 11 12 13 14 15 16 17 18 19 20 21 22 23 24 25 26 27 28 29 30 31 32 33 34 35 36 37 38 39 40 41 42 43 44 45 46 47 48 49

000
ASUS45 KBOU 310807
RWRCO

WEATHER ROUNDUP FOR COLORADO
NATIONAL WEATHER SERVICE DENVER/BOULDER CO
100 AM MST SAT JAN 31 2015

NOTE: "FAIR" INDICATES FEW OR NO CLOUDS BELOW 12000 FEET WITH NO
SIGNIFICANT WEATHER AND/OR OBSTRUCTIONS TO VISIBILITY.

COZ001>005-013-030-031-310900-
...NORTHWEST COLORADO...

CITY           SKY/WX    TMP DP  RH WIND       PRES   REMARKS
CRAIG          LGT RAIN  33  32  96 CALM      29.94F FOG
HAYDEN         CLOUDY    32  28  86 CALM      29.93F
MEEKER         LGT SNOW  33  32  96 CALM      29.92F FOG
MOUNT WERNER   NOT AVBL
STEAMBOAT SPGS CLOUDY    32  30  92 CALM      29.94S
WALDEN         CLOUDY    30  27  86 SE6       29.95F WCI  24
$$

COZ006>008-011-310900-
...WEST CENTRAL VALLEYS...

CITY           SKY/WX    TMP DP  RH WIND       PRES   REMARKS
GRAND JUNCTION LGT RAIN  38  38 100 CALM      29.92F VSB 1/2
MONTROSE       CLOUDY    38  36  92 CALM      29.94F
EAGLE          CLOUDY    34  32  93 CALM      29.96F VSB 1/4
RIFLE          CLOUDY    36  34  92 CALM      29.92F
DELTA          LGT RAIN  41  40  99 CALM      29.93S VSB 1/4
NUCLA          DRIZZLE   34  34 100 CALM      29.97F
$$

COZ017>023-064>068-310900-
...SOUTHWEST COLORADO...

CITY           SKY/WX    TMP DP  RH WIND       PRES   REMARKS
DURANGO        LGT SNOW  32  31  96 E5        29.95F FOG     WCI  27
CORTEZ         MIX PCPN  36  34  92 SW8       29.94F
PAGOSA SPRINGS LGT SNOW  34  34 100 CALM      29.97F
TELLURIDE      FOG       31  31 100 W3        29.95S VSB 1/2
WOLF CREEK PAS SNOW      23  23 100 SW9G20    30.03F VSB 1/4 WCI  13
$$

COZ009-010-012-014-032>034-037-058>063-310900-
...CENTRAL COLORADO...

CITY           SKY/WX    TMP DP  RH WIND       PRES   REMARKS
ASPEN          CLOUDY    31  30  96 CALM      29.92F FOG
BUENA VISTA    LGT SNOW  30  29  96 CALM      30.00F
COPPER MTN     CLOUDY    27  19  74 SE7G20    29.98F WCI  19
BERTHOUD PASS  MOCLDY    16  10  79 SE10      30.02F WCI   3
COTTONWOOD PAS LGT SNOW  30  28  93 CALM      30.00F
GUNNISON       CLOUDY    32  28  86 N9        29.96F WCI  24
KREMMLING      LGT SNOW  30  28  93 CALM      29.96F
LEADVILLE      LGT SNOW  23  23 100 CALM      29.97F VSB 3/4
MONARCH PASS   CLOUDY    21  19  93 MISG      30.12F
SALIDA         CLOUDY    33  32  96 CALM      30.07F
SUNLIGHT       LGT SNOW  30  28  93 CALM        N/A
WILKERSON PASS CLOUDY   N/A N/A N/A S3        30.04F
$$

COZ069>075-310900-
...SAN LUIS VALLEY/SANGRE DE CRISTO MOUNTAINS...

CITY           SKY/WX    TMP DP  RH WIND       PRES   REMARKS
ALAMOSA        CLOUDY    30  28  92 CALM      29.99F
LA VETA PASS   LGT SNOW  25  23  93 NE3       30.01F
SAGUACHE       CLOUDY    30  28  93 CALM      30.00F
$$

COZ035-036-038>040-310900-
...NORTHERN COLORADO FRONT RANGE...

CITY           SKY/WX    TMP DP  RH WIND       PRES   REMARKS
DENVER INTL AP CLOUDY    35  25  66 N9        29.98F WCI  28
DMNS CITY PARK   N/A     37  24  59 N1        29.99F
AURORA         CLOUDY    34  25  71 NW2       30.00F
FRONT RANGE AP NOT AVBL
ERIE MUNI ARPT CLOUDY    34  30  85 CALM      30.00F
BOULDER MUN AP CLOUDY    37  27  65 CALM      29.99F
CENTENNIAL     CLOUDY    35  26  69 NW5       29.99F WCI  31
BROOMFIELD     CLOUDY    36  27  69 NW5       30.00F
FORT COLLINS   CLOUDY    37  25  60 NE6       30.02F
LONGMONT       CLOUDY    39  31  72 CALM      30.02F
$$

COZ041-046-047-076>085-087-088-310900-
...PIKES PEAK/PALMER DIVIDE AND SOUTHERN FOOTHILLS...

CITY           SKY/WX    TMP DP  RH WIND       PRES   REMARKS
COLO. SPRINGS  CLOUDY    39  25  57 NW13      29.99F
A. F. ACADEMY  CLOUDY    34  28  79 N5        29.99F WCI  29
ELLICOTT       CLOUDY   N/A N/A N/A N7        29.97F
FALCON         CLOUDY    35  25  66 N13       29.99F WCI  26
FORT CARSON    CLOUDY    38  30  71 NW8       29.98F
LIMON          CLOUDY    29  28  96 NW3       29.97F
MONUMENT HILL  CLOUDY    30  28  93 NW5       29.98F WCI  25
TRINIDAD       CLOUDY    34  30  85 W14       29.98F WCI  25
$$

COZ042>045-048>051-090-091-310900-
...NORTHEAST COLORADO...

CITY           SKY/WX    TMP DP  RH WIND       PRES   REMARKS
GREELEY ARPT   CLOUDY    36  23  60 NW7       30.00F
AKRON          CLOUDY    32  31  96 NW9       29.97F WCI  24
BURLINGTON     CLOUDY    34  32  92 SW13      29.99F WCI  25
WRAY           CLOUDY    36  34  92 E5        30.00F
STERLING       CLOUDY    34  30  86 N6        29.98F WCI  29
HOLYOKE        NOT AVBL
FORT MORGAN    CLOUDY    36  27  70 N10       30.00F
$$

COZ086-089-092>099-310900-
...SOUTHEAST COLORADO...

CITY           SKY/WX    TMP DP  RH WIND       PRES   REMARKS
PUEBLO         CLOUDY    37  35  92 CALM      29.99F
LA JUNTA       CLOUDY    38  36  92 NW5       29.99F FOG
LAMAR          CLOUDY    38  36  92 S8        29.98F
SPRINGFIELD      N/A     33  32  96 S21       30.01F WCI  21
$$



USA.gov is the U.S. government's official web portal to all federal, state and local government web resources and services.